DW9493 Weather Reports


Display with metric or nautical units.
time (UTC)temp
F
wind
direction
speed
MPH
gust
MPH
rain 1hr
in
rain 24hr
in
rain mn
in
humidity
%
barometer
mb
20260901160914 67 347 0.0 2.0 0.00 0.11 0.08 56 1027.0
20260901155902 65 120 1.0 6.0 0.00 0.11 0.08 64 1027.1
20260901154902 62 285 4.0 7.0 0.00 0.11 0.08 69 1027.0
20260901153901 61 313 4.0 10.0 0.00 0.11 0.08 70 1027.1
20260901153345 59 335 5.0 8.0 0.00 0.11 0.08 74 1027.1
20260901151901 58 313 4.0 8.0 0.00 0.11 0.08 75 1027.1
20260901150902 57 335 1.0 5.0 0.00 0.11 0.08 77 1027.1
20260901150348 56 252 0.0 2.0 0.00 0.11 0.08 85 1027.0
20260901144859 55 50 0.0 1.0 0.00 0.11 0.08 90 1027.0
20260901143859 54 50 0.0 2.0 0.00 0.11 0.08 90 1027.0
20260901142859 53 195 0.0 1.0 0.00 0.11 0.08 93 1027.0
20260901141855 53 195 0.0 1.0 0.00 0.11 0.08 92 1027.0
20260901140855 52 315 0.0 1.0 0.00 0.11 0.08 92 1026.9
20260901140817 52 315 0.0 1.0 0.00 0.11 0.08 92 1027.0
20260901134855 52 315 0.0 0.0 0.00 0.11 0.08 90 1026.9
20260901133855 52 315 0.0 2.0 0.00 0.11 0.08 90 1026.8
20260901132856 52 315 1.0 3.0 0.00 0.11 0.08 91 1026.8
20260901131853 51 317 0.0 2.0 0.00 0.11 0.08 91 1026.5
20260901130854 51 317 0.0 2.0 0.00 0.11 0.08 92 1026.4
20260901125855 51 295 1.0 4.0 0.00 0.11 0.08 93 1026.1
20260901124850 51 316 1.0 4.0 0.00 0.11 0.08 93 1026.0
20260901123845 51 321 0.0 2.0 0.00 0.11 0.08 94 1026.0
20260901122845 51 295 0.0 3.0 0.00 0.11 0.08 94 1025.8
20260901121845 51 312 1.0 3.0 0.00 0.11 0.08 95 1025.6
20260901120840 51 315 0.0 3.0 0.00 0.11 0.08 95 1025.6
20260901115839 51 326 0.0 2.0 0.00 0.11 0.08 95 1025.6
20260901114839 51 326 0.0 0.0 0.00 0.11 0.08 94 1025.8
20260901113839 51 326 0.0 1.0 0.00 0.11 0.08 94 1025.6
20260901113318 51 326 1.0 3.0 0.00 0.11 0.08 94 1025.8
20260901111836 51 304 1.0 3.0 0.00 0.11 0.08 94 1025.8
20260901110838 51 319 1.0 4.0 0.00 0.11 0.08 95 1025.6
20260901105833 51 313 0.0 2.0 0.00 0.11 0.08 95 1025.8
20260901104834 51 314 0.0 1.0 0.00 0.11 0.08 95 1025.9
20260901104314 51 313 0.0 0.0 0.00 0.11 0.08 95 1025.9
20260901102833 51 313 0.0 1.0 0.00 0.11 0.08 95 1026.0
20260901101833 51 313 0.0 2.0 0.00 0.11 0.08 95 1025.9
20260901100833 51 167 0.0 1.0 0.00 0.11 0.08 95 1026.1
20260901095833 52 167 0.0 1.0 0.00 0.11 0.08 95 1026.3
20260901094831 52 334 0.0 0.0 0.00 0.11 0.08 95 1026.4
20260901093832 52 335 0.0 0.0 0.00 0.11 0.08 95 1026.5
20260901092831 52 334 0.0 0.0 0.00 0.11 0.08 95 1026.4
20260901091832 52 334 0.0 1.0 0.00 0.11 0.08 95 1026.5
20260901090832 52 335 0.0 0.0 0.01 0.11 0.08 95 1026.6
20260901090310 52 335 0.0 0.0 0.01 0.11 0.08 95 1026.6
20260901084830 52 335 0.0 1.0 0.01 0.11 0.08 95 1026.8
20260901083826 52 335 0.0 0.0 0.01 0.11 0.08 94 1026.8
20260901082825 53 335 0.0 0.0 0.02 0.11 0.08 94 1026.9
20260901081825 53 334 0.0 0.0 0.02 0.11 0.08 94 1026.9
20260901081309 53 334 0.0 0.0 0.01 0.10 0.07 94 1027.0
20260901075825 53 334 0.0 2.0 0.01 0.10 0.07 94 1027.1
20260901074825 54 257 0.0 1.0 0.01 0.10 0.07 94 1027.3
20260901073825 54 257 0.0 1.0 0.03 0.10 0.07 93 1027.3
20260901072823 54 257 0.0 1.0 0.05 0.09 0.06 94 1027.6
20260901071824 54 257 0.0 1.0 0.06 0.09 0.06 94 1027.6
20260901070825 54 32 0.0 0.0 0.06 0.09 0.06 94 1027.4
20260901065824 54 32 0.0 0.0 0.06 0.09 0.06 93 1027.4
20260901064823 54 32 0.0 1.0 0.06 0.09 0.06 92 1027.5
20260901063823 54 32 0.0 2.0 0.04 0.07 0.04 92 1027.9
20260901062824 55 139 0.0 1.0 0.01 0.04 0.01 91 1028.3
20260901061820 54 333 0.0 1.0 0.00 0.03 0.00 91 1027.4
20260901060821 55 335 0.0 1.0 0.00 0.03 0.00 90 1027.4
20260901055819 55 333 0.0 1.0 0.00 0.03 0.03 89 1027.6
20260901054819 55 333 0.0 3.0 0.00 0.03 0.03 87 1027.4
20260901053819 55 242 0.0 1.0 0.00 0.03 0.03 88 1027.9
20260901053306 55 317 0.0 1.0 0.00 0.03 0.03 89 1027.6
20260901051819 55 318 0.0 3.0 0.00 0.03 0.03 89 1027.3
20260901050817 55 322 0.0 3.0 0.00 0.03 0.03 89 1027.6
20260901045816 55 326 0.0 1.0 0.00 0.03 0.03 90 1027.8
20260901044809 55 264 0.0 2.0 0.00 0.03 0.03 90 1027.8
20260901043803 55 94 0.0 0.0 0.00 0.03 0.03 90 1027.9
20260901042800 55 94 0.0 0.0 0.00 0.03 0.03 89 1027.9
20260901041800 55 94 0.0 0.0 0.00 0.03 0.03 89 1028.0
20260901040749 56 94 0.0 3.0 0.00 0.03 0.03 88 1028.0
20260901035733 56 56 0.0 4.0 0.00 0.03 0.03 87 1028.0
20260901034709 56 99 0.0 2.0 0.00 0.03 0.03 86 1028.0
20260901033705 56 252 2.0 6.0 0.01 0.03 0.03 86 1027.5
20260901032706 56 254 4.0 11.0 0.01 0.03 0.03 88 1027.6
20260901031704 56 325 6.0 12.0 0.02 0.03 0.03 89 1027.5
20260901030705 56 319 4.0 9.0 0.03 0.03 0.03 88 1028.0
20260901025704 56 326 4.0 9.0 0.03 0.03 0.03 86 1028.1
20260901025138 57 311 2.0 8.0 0.03 0.03 0.03 84 1028.3
20260901023649 57 208 0.0 3.0 0.02 0.02 0.02 81 1028.9
20260901022645 58 228 3.0 9.0 0.02 0.02 0.02 80 1028.9
20260901022117 59 196 4.0 10.0 0.01 0.01 0.01 75 1028.8
20260901020645 62 199 1.0 7.0 0.00 0.00 0.00 67 1028.5
20260901020114 64 205 1.0 7.0 0.00 0.00 0.00 60 1028.0
20260901014640 64 145 0.0 3.0 0.00 0.00 0.00 58 1028.0
20260901014557 64 290 0.0 3.0 0.00 0.00 0.00 59 1027.6
20260901013054 64 333 3.0 10.0 0.00 0.00 0.00 59 1027.3
20260901011609 64 305 6.0 13.0 0.00 0.00 0.00 60 1026.9
20260901010608 64 305 8.0 18.0 0.00 0.00 0.00 60 1026.8
20260901010048 64 322 7.0 16.0 0.00 0.00 0.00 59 1026.6
20260901004607 64 302 7.0 15.0 0.00 0.00 0.00 60 1026.8
20260901003607 64 274 8.0 19.0 0.00 0.00 0.00 61 1026.8
20260901002606 65 332 7.0 18.0 0.00 0.00 0.00 59 1026.9
20260901001606 68 283 5.0 19.0 0.00 0.00 0.00 52 1027.0
20260901001527 70 326 1.0 5.0 0.00 0.00 0.00 43 1026.9
20260831235606 71 124 0.0 1.0 0.00 0.00 0.00 43 1026.8
20260831234606 71 32 0.0 3.0 0.00 0.00 0.00 41 1026.6
20260831233559 71 102 2.0 8.0 0.00 0.00 0.00 41 1026.5
20260831232551 71 63 1.0 5.0 0.00 0.00 0.00 41 1026.4
20260831231550 71 79 2.0 8.0 0.00 0.00 0.00 40 1026.5
20260831230547 72 114 1.0 7.0 0.00 0.00 0.00 41 1026.4
20260831225549 72 69 1.0 7.0 0.00 0.00 0.00 40 1026.4
20260831224525 71 36 2.0 9.0 0.00 0.00 0.00 41 1026.5
20260831223525 71 43 2.0 9.0 0.00 0.00 0.00 41 1026.6
20260831222520 72 113 2.0 10.0 0.00 0.00 0.00 41 1026.8
20260831221516 72 19 2.0 7.0 0.00 0.00 0.00 42 1026.8
20260831220516 72 94 1.0 6.0 0.00 0.00 0.00 41 1026.9
20260831215514 72 25 2.0 7.0 0.00 0.00 0.00 42 1026.9
20260831214514 72 70 2.0 8.0 0.00 0.00 0.00 41 1026.9
20260831213512 72 116 3.0 10.0 0.00 0.00 0.00 42 1026.9
20260831212512 72 44 3.0 12.0 0.00 0.00 0.00 41 1026.9
20260831211509 72 40 3.0 10.0 0.00 0.00 0.00 41 1027.1
20260831210510 73 89 3.0 11.0 0.00 0.00 0.00 42 1027.3
20260831205945 72 63 3.0 10.0 0.00 0.02 0.00 42 1027.3
20260831204953 71 51 2.0 9.0 0.00 0.02 0.00 43 1027.4
20260831203956 71 16 3.0 8.0 0.00 0.03 0.00 44 1027.5
20260831202453 71 37 3.0 9.0 0.00 0.06 0.00 43 1027.5
20260831201450 72 60 3.0 9.0 0.00 0.06 0.00 46 1027.8
20260831200448 71 64 2.0 6.0 0.00 0.06 0.00 44 1027.9
20260831195450 71 340 2.0 7.0 0.00 0.06 0.00 44 1028.0
20260831194450 71 82 2.0 5.0 0.00 0.06 0.00 44 1028.0
20260831193446 71 88 1.0 8.0 0.00 0.06 0.00 43 1028.1
20260831192935 71 48 2.0 6.0 0.00 0.06 0.00 43 1028.3
20260831191431 71 23 2.0 8.0 0.00 0.06 0.00 41 1028.4
20260831190421 71 82 2.0 8.0 0.00 0.06 0.00 40 1028.5
20260831185418 71 125 1.0 9.0 0.00 0.06 0.00 42 1028.5
20260831184417 70 26 1.0 6.0 0.00 0.06 0.00 42 1028.8
20260831183416 69 125 1.0 4.0 0.00 0.06 0.00 42 1028.8
20260831182417 69 87 1.0 3.0 0.00 0.06 0.00 42 1028.9
20260831181416 70 79 1.0 5.0 0.00 0.06 0.00 42 1028.9
20260831180416 70 93 1.0 4.0 0.00 0.06 0.00 42 1028.9
20260831175409 70 175 2.0 7.0 0.00 0.06 0.00 42 1029.0
20260831174407 69 39 2.0 8.0 0.00 0.06 0.00 42 1028.9
20260831173407 70 84 1.0 6.0 0.00 0.06 0.00 42 1029.0
20260831172408 70 107 1.0 6.0 0.00 0.06 0.00 42 1029.0
20260831171401 71 133 0.0 3.0 0.00 0.06 0.00 43 1029.0
20260831170358 71 50 0.0 3.0 0.00 0.06 0.00 42 1029.0
20260831165357 71 33 0.0 2.0 0.00 0.06 0.00 40 1029.2
20260831164357 71 96 0.0 4.0 0.00 0.06 0.00 41 1029.2
20260831163353 71 126 0.0 2.0 0.00 0.06 0.00 40 1029.2
20260831162350 72 184 0.0 2.0 0.00 0.06 0.00 40 1029.0
20260831161350 70 114 0.0 2.0 0.00 0.06 0.00 41 1029.0